Hourly Data Report for October 03, 2017

All times are specified in Local Standard Time (LST). Add 1 hour to adjust for Daylight Saving Time where and when it is observed.

SATURNA ISLAND CS
BRITISH COLUMBIA

48°47'02.067" N
123°02'41.082" W
24.40 m
1017101
71473
WEZ

Download Data

Hourly Data (October 2017)
Hourly Data Report for October 3, 2017
Temp Definition
°C
Dew Point Temp Definition
°C
Rel Hum Definition
%
Wind Dir Definition
10's deg

Wind Spd Definition
km/h
Visibility Definition
km
Stn Press Definition
kPa
Hmdx Definition


Wind Chill Definition


Weather Definition


TIME
00:00 13.1 7.5 69 34 12   102.20     LegendNANA
01:00 12.5 8.0 74 32 7   102.24     LegendNANA
02:00 12.3 7.6 73 33 7   102.27     LegendNANA
03:00 12.2 6.5 68 34 9   102.27     LegendNANA
04:00 12.4 7.2 71 35 14   102.29     LegendNANA
05:00 12.1 8.0 76 33 7   102.32     LegendNANA
06:00 11.6 8.3 80 32 8   102.33     LegendNANA
07:00 11.9 7.5 74 32 8   102.34     LegendNANA
08:00 12.6 7.0 69 34 7   102.40     LegendNANA
09:00 14.5 5.4 55 4 14   102.41     LegendNANA
10:00 13.6 3.4 50 36 9   102.43     LegendNANA
11:00 14.5 4.9 52 35 6   102.39     LegendNANA
12:00 16.4 6.6 52 32 4   102.33     LegendNANA
13:00 16.0 7.6 58 31 6   102.27     LegendNANA
14:00 16.2 8.2 59 31 3   102.22     LegendNANA
15:00 15.8 7.2 56 30 4   102.14     LegendNANA
16:00 13.7 8.2 69 28 4   102.08     LegendNANA
17:00 13.0 8.3 73 27 2   102.05     LegendNANA
18:00 12.7 6.7 67 33 3   102.01     LegendNANA
19:00 12.9 5.6 61 28 3   102.01     LegendNANA
20:00 13.0 7.0 67 29 4   102.01     LegendNANA
21:00 13.2 6.3 63 29 5   101.98     LegendNANA
22:00 13.3 6.6 64 29 6   101.97     LegendNANA
23:00 13.0 7.4 69 28 4   101.98     LegendNANA

Notes on Data Quality.

Legend

  • E = Estimated
  • M = Missing
  • NA = Not Available
  • ‡ = Partner data that is not subject to review by the National Climate Archives
Date modified: